Location: Newark
(30.3239°N, 81.6375°W)
Time: 12:55:12
(UTC+00:00)

X-37B - Visible Passes

Search period start: 28 February 2021 00:00
Search period end: 10 March 2021 00:00
Orbit: 383 x 391 km, 45.0° (Epoch: 27 February)

Date Brightness Start Highest point End Pass type
(mag) Time Alt. Az. Time Alt. Az. Time Alt. Az.
01 Mar 3.1 10:34:25 12° NNW 10:36:10 17° NNE 10:38:21 10° ENE visible
02 Mar 1.0 11:11:30 10° NW 11:14:38 62° NE 11:17:45 10° ESE visible
03 Mar 2.1 10:15:47 28° NNE 10:16:13 29° NNE 10:19:02 10° E visible
04 Mar 0.7 10:52:49 23° WNW 10:54:30 53° SW 10:57:34 10° SE visible
05 Mar 2.6 09:57:40 27° ESE 09:57:40 27° ESE 09:59:17 10° ESE visible
06 Mar 2.3 10:35:00 20° SSW 10:35:00 20° SSW 10:36:48 10° S visible
08 Mar 2.8 00:29:34 10° SSE 00:30:40 13° SSE 00:30:40 13° SSE visible
09 Mar 1.8 01:06:09 10° SW 01:08:11 36° SW 01:08:11 36° SW visible
